Torna al catalogo

STARLINK-5993

AttivoComunicazioniVLEO
NORAD 56449·PAYLOAD·🇺🇸 United States

Lanciato May 10, 2023 da Vandenberg Space Force Base

Loading…

Prossimi Passaggi (prossime 24 ore)

TLE

AggiornatoSource: CelesTrak SupGP

Epoca: Sep 14, 2026, 13:37 UTC

1 56449C 23064B   26257.56784722 -.00031272  00000+0 -26211-2 0  2573
2 56449  70.0027  28.4239 0003268 265.5492  83.1829 14.98340380    18

Traccia STARLINK-5993 in tempo reale con AllMySat

Download on the App Store